| time (UTC) | temp F | wind direction | speed MPH | gust MPH | rain 1hr in | rain 24hr in | rain mn in | humidity % | barometer mb |
| 20260502232844 | 72 | 71 | 5.0 | 10.0 | 0.00 | 0.30 | 0.09 | 91 | 1018.5 |
| 20260502232327 | 72 | 42 | 3.0 | 11.0 | 0.00 | 0.30 | 0.09 | 91 | 1018.5 |
| 20260502231832 | 72 | 9 | 5.0 | 12.0 | 0.00 | 0.30 | 0.09 | 91 | 1018.5 |
| 20260502231318 | 72 | 19 | 7.0 | 14.0 | 0.00 | 0.30 | 0.09 | 91 | 1018.5 |
| 20260502230851 | 72 | 9 | 8.0 | 14.0 | 0.00 | 0.30 | 0.09 | 91 | 1018.6 |
| 20260502230334 | 72 | 24 | 8.0 | 15.0 | 0.00 | 0.30 | 0.09 | 91 | 1018.5 |
| 20260502225842 | 72 | 5 | 9.0 | 15.0 | 0.00 | 0.30 | 0.09 | 91 | 1018.5 |
| 20260502225324 | 72 | 5 | 7.0 | 10.0 | 0.00 | 0.35 | 0.09 | 92 | 1018.6 |
| 20260502224829 | 72 | 38 | 5.0 | 11.0 | 0.00 | 0.35 | 0.09 | 92 | 1018.5 |
| 20260502224341 | 73 | 44 | 8.0 | 11.0 | 0.00 | 0.35 | 0.09 | 92 | 1018.5 |
| 20260502223826 | 72 | 9 | 5.0 | 11.0 | 0.00 | 0.35 | 0.09 | 92 | 1018.6 |
| 20260502223330 | 73 | 351 | 6.0 | 11.0 | 0.00 | 0.35 | 0.09 | 92 | 1018.6 |
| 20260502222835 | 73 | 26 | 7.0 | 12.0 | 0.00 | 0.35 | 0.09 | 92 | 1018.6 |
| 20260502222320 | 73 | 22 | 7.0 | 13.0 | 0.00 | 0.35 | 0.09 | 92 | 1018.6 |
| 20260502221827 | 73 | 360 | 8.0 | 13.0 | 0.00 | 0.35 | 0.09 | 93 | 1018.7 |
| 20260502221333 | 73 | 29 | 6.0 | 10.0 | 0.00 | 0.35 | 0.09 | 93 | 1018.7 |
| 20260502220819 | 73 | 360 | 4.0 | 9.0 | 0.00 | 0.35 | 0.09 | 93 | 1018.8 |
| 20260502220327 | 73 | 5 | 4.0 | 9.0 | 0.00 | 0.35 | 0.09 | 93 | 1018.8 |
| 20260502215832 | 73 | 355 | 6.0 | 10.0 | 0.00 | 0.35 | 0.09 | 93 | 1018.7 |
| 20260502215337 | 73 | 349 | 5.0 | 10.0 | 0.00 | 0.41 | 0.09 | 93 | 1018.7 |
| 20260502214825 | 73 | 360 | 5.0 | 10.0 | 0.00 | 0.41 | 0.09 | 93 | 1018.8 |
| 20260502214329 | 73 | 48 | 4.0 | 10.0 | 0.00 | 0.41 | 0.09 | 93 | 1018.8 |
| 20260502213817 | 73 | 340 | 3.0 | 8.0 | 0.00 | 0.41 | 0.09 | 93 | 1019.0 |
| 20260502213345 | 73 | 29 | 3.0 | 12.0 | 0.00 | 0.41 | 0.09 | 94 | 1019.1 |
| 20260502212831 | 73 | 342 | 7.0 | 15.0 | 0.00 | 0.41 | 0.09 | 94 | 1019.1 |
| 20260502212337 | 72 | 355 | 8.0 | 15.0 | 0.00 | 0.41 | 0.09 | 94 | 1019.1 |
| 20260502211844 | 72 | 288 | 5.0 | 15.0 | 0.00 | 0.41 | 0.09 | 94 | 1019.1 |
| 20260502211328 | 72 | 336 | 6.0 | 15.0 | 0.00 | 0.41 | 0.09 | 94 | 1019.1 |
| 20260502210818 | 72 | 336 | 6.0 | 10.0 | 0.00 | 0.41 | 0.09 | 94 | 1019.2 |
| 20260502210345 | 72 | 22 | 2.0 | 6.0 | 0.00 | 0.41 | 0.09 | 94 | 1019.3 |
| 20260502205829 | 72 | 67 | 4.0 | 12.0 | 0.00 | 0.41 | 0.09 | 94 | 1019.3 |
| 20260502205405 | 72 | 42 | 5.0 | 12.0 | 0.00 | 0.47 | 0.09 | 94 | 1019.5 |
| 20260502204829 | 72 | 44 | 5.0 | 14.0 | 0.00 | 0.47 | 0.09 | 95 | 1019.5 |
| 20260502204357 | 72 | 5 | 9.0 | 13.0 | 0.00 | 0.47 | 0.09 | 95 | 1019.4 |
| 20260502203824 | 72 | 24 | 5.0 | 9.0 | 0.00 | 0.47 | 0.09 | 95 | 1019.4 |
| 20260502203330 | 72 | 57 | 5.0 | 9.0 | 0.00 | 0.47 | 0.09 | 95 | 1019.4 |
| 20260502202326 | 72 | 70 | 3.0 | 11.0 | 0.00 | 0.47 | 0.09 | 95 | 1019.5 |
| 20260502201829 | 71 | 360 | 9.0 | 13.0 | 0.00 | 0.47 | 0.09 | 95 | 1019.6 |
| 20260502201335 | 71 | 28 | 4.0 | 14.0 | 0.00 | 0.47 | 0.09 | 95 | 1019.6 |
| 20260502200823 | 71 | 56 | 3.0 | 14.0 | 0.00 | 0.47 | 0.09 | 96 | 1019.6 |
| 20260502200324 | 71 | 340 | 7.0 | 15.0 | 0.00 | 0.47 | 0.09 | 96 | 1019.6 |
| 20260502195830 | 70 | 314 | 7.0 | 15.0 | 0.00 | 0.47 | 0.09 | 95 | 1019.6 |
| 20260502195402 | 71 | 42 | 4.0 | 12.0 | 0.00 | 0.55 | 0.09 | 96 | 1019.7 |
| 20260502194829 | 70 | 52 | 3.0 | 12.0 | 0.00 | 0.55 | 0.09 | 96 | 1019.7 |
| 20260502194329 | 71 | 52 | 3.0 | 12.0 | 0.00 | 0.55 | 0.09 | 96 | 1019.8 |
| 20260502193833 | 70 | 17 | 5.0 | 10.0 | 0.00 | 0.55 | 0.09 | 96 | 1019.9 |
| 20260502193317 | 70 | 321 | 3.0 | 10.0 | 0.00 | 0.55 | 0.09 | 96 | 1019.9 |
| 20260502192822 | 70 | 324 | 7.0 | 13.0 | 0.00 | 0.55 | 0.09 | 96 | 1019.9 |
| 20260502192326 | 70 | 355 | 9.0 | 13.0 | 0.00 | 0.55 | 0.09 | 96 | 1020.1 |
| 20260502191841 | 70 | 69 | 6.0 | 15.0 | 0.00 | 0.55 | 0.09 | 96 | 1020.0 |
| 20260502191327 | 70 | 329 | 6.0 | 15.0 | 0.00 | 0.55 | 0.09 | 96 | 1020.1 |
| 20260502190829 | 69 | 44 | 7.0 | 13.0 | 0.00 | 0.55 | 0.09 | 96 | 1020.2 |
| 20260502190318 | 70 | 5 | 5.0 | 12.0 | 0.00 | 0.55 | 0.09 | 96 | 1020.2 |
| 20260502185824 | 70 | 28 | 4.0 | 14.0 | 0.00 | 0.55 | 0.09 | 96 | 1020.3 |
| 20260502185327 | 69 | 309 | 9.0 | 15.0 | 0.00 | 0.64 | 0.09 | 96 | 1020.4 |
| 20260502184834 | 69 | 355 | 8.0 | 17.0 | 0.00 | 0.64 | 0.09 | 96 | 1020.5 |
| 20260502184346 | 69 | 360 | 7.0 | 17.0 | 0.00 | 0.64 | 0.09 | 96 | 1020.6 |
| 20260502183850 | 68 | 355 | 6.0 | 13.0 | 0.00 | 0.64 | 0.09 | 96 | 1020.7 |
| 20260502183333 | 69 | 55 | 5.0 | 12.0 | 0.00 | 0.64 | 0.09 | 96 | 1020.7 |
| 20260502182819 | 69 | 24 | 5.0 | 15.0 | 0.00 | 0.64 | 0.09 | 96 | 1020.8 |
| 20260502182324 | 69 | 355 | 8.0 | 15.0 | 0.00 | 0.64 | 0.09 | 96 | 1021.0 |
| 20260502181826 | 68 | 320 | 9.0 | 14.0 | 0.00 | 0.64 | 0.09 | 96 | 1021.0 |
| 20260502181338 | 68 | 12 | 6.0 | 14.0 | 0.00 | 0.64 | 0.09 | 96 | 1021.0 |
| 20260502180842 | 68 | 360 | 6.0 | 13.0 | 0.00 | 0.64 | 0.09 | 96 | 1021.1 |
| 20260502180327 | 68 | 325 | 4.0 | 14.0 | 0.00 | 0.64 | 0.09 | 96 | 1021.1 |
| 20260502170321 | 66 | 325 | 7.0 | 13.0 | 0.00 | 0.73 | 0.09 | 96 | 1021.7 |
| 20260502164318 | 64 | 20 | 5.0 | 13.0 | 0.00 | 0.84 | 0.09 | 97 | 1021.8 |
| 20260502163831 | 64 | 341 | 7.0 | 13.0 | 0.00 | 0.84 | 0.09 | 97 | 1021.9 |
| 20260502163337 | 64 | 343 | 6.0 | 12.0 | 0.00 | 0.84 | 0.09 | 97 | 1021.8 |
| 20260502162824 | 64 | 35 | 5.0 | 10.0 | 0.00 | 0.84 | 0.09 | 97 | 1021.7 |
| 20260502162324 | 63 | 13 | 3.0 | 14.0 | 0.00 | 0.84 | 0.09 | 97 | 1021.7 |
| 20260502161851 | 63 | 12 | 10.0 | 14.0 | 0.00 | 0.84 | 0.09 | 97 | 1021.8 |
| 20260502161335 | 63 | 324 | 7.0 | 12.0 | 0.00 | 0.84 | 0.09 | 97 | 1021.8 |
| 20260502160820 | 62 | 11 | 6.0 | 13.0 | 0.00 | 0.84 | 0.09 | 97 | 1021.8 |
| 20260502160352 | 62 | 9 | 6.0 | 13.0 | 0.00 | 0.84 | 0.09 | 96 | 1021.8 |
| 20260502152326 | 61 | 12 | 5.0 | 10.0 | 0.00 | 0.96 | 0.09 | 97 | 1021.8 |
| 20260502151832 | 60 | 360 | 4.0 | 10.0 | 0.00 | 0.96 | 0.09 | 97 | 1021.8 |
| 20260502151406 | 60 | 360 | 6.0 | 11.0 | 0.00 | 0.96 | 0.09 | 97 | 1021.8 |
| 20260502150827 | 60 | 320 | 5.0 | 12.0 | 0.00 | 0.96 | 0.09 | 97 | 1021.8 |
| 20260502150330 | 60 | 344 | 8.0 | 13.0 | 0.00 | 0.96 | 0.09 | 97 | 1021.8 |
| 20260502130332 | 52 | 323 | 1.0 | 5.0 | 0.00 | 1.20 | 0.09 | 96 | 1020.5 |
| 20260502045820 | 52 | 54 | 6.0 | 11.0 | 0.03 | 1.56 | 0.00 | 95 | 1017.2 |
| 20260502045323 | 52 | 46 | 6.0 | 11.0 | 0.02 | 1.57 | 1.55 | 95 | 1017.3 |
| 20260502044834 | 52 | 39 | 4.0 | 9.0 | 0.02 | 1.57 | 1.55 | 95 | 1017.3 |
| 20260502044340 | 52 | 38 | 5.0 | 8.0 | 0.03 | 1.57 | 1.55 | 95 | 1017.3 |
| 20260502043827 | 52 | 5 | 4.0 | 8.0 | 0.03 | 1.57 | 1.55 | 95 | 1017.2 |
| 20260502043333 | 52 | 19 | 4.0 | 8.0 | 0.03 | 1.57 | 1.55 | 95 | 1017.3 |
| 20260502042822 | 52 | 13 | 4.0 | 8.0 | 0.02 | 1.56 | 1.54 | 95 | 1017.3 |
| 20260502042329 | 52 | 5 | 3.0 | 8.0 | 0.02 | 1.56 | 1.54 | 95 | 1017.4 |
| 20260502041832 | 52 | 355 | 4.0 | 9.0 | 0.03 | 1.56 | 1.54 | 95 | 1017.3 |
| 20260502041318 | 52 | 63 | 5.0 | 9.0 | 0.03 | 1.56 | 1.54 | 95 | 1017.3 |
| 20260502040820 | 52 | 35 | 5.0 | 10.0 | 0.03 | 1.56 | 1.54 | 95 | 1017.3 |
| 20260502040332 | 52 | 29 | 5.0 | 11.0 | 0.02 | 1.55 | 1.53 | 95 | 1017.3 |
| 20260502035841 | 52 | 45 | 6.0 | 11.0 | 0.03 | 1.55 | 1.53 | 95 | 1017.4 |
| 20260502035325 | 52 | 55 | 5.0 | 11.0 | 0.03 | 1.55 | 1.53 | 95 | 1017.4 |
| 20260502034849 | 52 | 360 | 5.0 | 12.0 | 0.03 | 1.55 | 1.53 | 95 | 1017.3 |
| 20260502034343 | 52 | 48 | 5.0 | 12.0 | 0.02 | 1.54 | 1.52 | 95 | 1017.3 |
| 20260502033818 | 52 | 67 | 6.0 | 13.0 | 0.03 | 1.54 | 1.52 | 95 | 1017.3 |
| 20260502033330 | 51 | 45 | 6.0 | 13.0 | 0.03 | 1.54 | 1.52 | 95 | 1017.4 |
| 20260502032833 | 51 | 46 | 9.0 | 13.0 | 0.03 | 1.54 | 1.52 | 95 | 1017.4 |
| 20260502032334 | 51 | 61 | 7.0 | 16.0 | 0.03 | 1.54 | 1.52 | 95 | 1017.4 |
| 20260502031820 | 51 | 53 | 4.0 | 16.0 | 0.03 | 1.53 | 1.51 | 95 | 1017.3 |
| 20260502031326 | 51 | 61 | 6.0 | 13.0 | 0.03 | 1.53 | 1.51 | 95 | 1017.2 |
| 20260502030900 | 51 | 60 | 5.0 | 14.0 | 0.03 | 1.53 | 1.51 | 95 | 1017.1 |
| 20260502030340 | 51 | 43 | 8.0 | 16.0 | 0.03 | 1.53 | 1.51 | 95 | 1017.2 |
| 20260502025825 | 51 | 44 | 7.0 | 17.0 | 0.03 | 1.52 | 1.50 | 95 | 1017.1 |
| 20260502025325 | 51 | 48 | 9.0 | 17.0 | 0.03 | 1.52 | 1.50 | 95 | 1016.9 |
| 20260502024829 | 51 | 45 | 7.0 | 13.0 | 0.03 | 1.52 | 1.50 | 95 | 1016.9 |
| 20260502024343 | 51 | 33 | 6.0 | 13.0 | 0.04 | 1.52 | 1.50 | 95 | 1016.7 |
| 20260502023844 | 51 | 65 | 5.0 | 13.0 | 0.03 | 1.51 | 1.49 | 95 | 1016.6 |
| 20260502023328 | 51 | 42 | 8.0 | 14.0 | 0.03 | 1.51 | 1.49 | 95 | 1016.5 |
| 20260502022854 | 51 | 64 | 8.0 | 20.0 | 0.03 | 1.51 | 1.49 | 95 | 1016.5 |
| 20260502022336 | 52 | 61 | 9.0 | 20.0 | 0.04 | 1.51 | 1.49 | 95 | 1016.3 |
| 20260502021822 | 52 | 31 | 9.0 | 17.0 | 0.03 | 1.50 | 1.48 | 95 | 1016.2 |
| 20260502021325 | 52 | 15 | 7.0 | 14.0 | 0.03 | 1.50 | 1.48 | 95 | 1016.0 |
| 20260502020835 | 52 | 5 | 8.0 | 20.0 | 0.04 | 1.50 | 1.48 | 95 | 1016.0 |
| 20260502020342 | 52 | 19 | 10.0 | 21.0 | 0.04 | 1.50 | 1.48 | 95 | 1015.8 |
| 20260502015829 | 53 | 41 | 11.0 | 21.0 | 0.03 | 1.49 | 1.47 | 95 | 1015.6 |
| 20260502015329 | 53 | 5 | 8.0 | 17.0 | 0.04 | 1.49 | 1.47 | 95 | 1015.8 |
| 20260502014850 | 53 | 11 | 9.0 | 16.0 | 0.04 | 1.49 | 1.47 | 95 | 1015.6 |
| 20260502014333 | 53 | 360 | 8.0 | 16.0 | 0.03 | 1.48 | 1.46 | 95 | 1015.6 |
| 20260502013844 | 53 | 61 | 9.0 | 15.0 | 0.04 | 1.48 | 1.46 | 95 | 1015.3 |
| 20260502013329 | 53 | 24 | 8.0 | 17.0 | 0.04 | 1.48 | 1.46 | 95 | 1015.2 |
| 20260502012832 | 53 | 50 | 10.0 | 17.0 | 0.03 | 1.47 | 1.45 | 95 | 1014.8 |
| 20260502012319 | 53 | 47 | 9.0 | 16.0 | 0.04 | 1.47 | 1.45 | 95 | 1014.8 |
| 20260502011825 | 53 | 15 | 7.0 | 13.0 | 0.04 | 1.47 | 1.45 | 95 | 1014.9 |
| 20260502011328 | 53 | 28 | 8.0 | 13.0 | 0.04 | 1.47 | 1.45 | 95 | 1015.3 |
| 20260502010834 | 53 | 32 | 7.0 | 15.0 | 0.04 | 1.46 | 1.44 | 95 | 1015.4 |
| 20260502010320 | 53 | 26 | 8.0 | 15.0 | 0.04 | 1.46 | 1.44 | 95 | 1015.3 |
| 20260502005829 | 53 | 63 | 9.0 | 17.0 | 0.04 | 1.46 | 1.44 | 95 | 1015.2 |
| 20260502005330 | 53 | 34 | 11.0 | 17.0 | 0.04 | 1.45 | 1.43 | 95 | 1015.0 |
| 20260502004843 | 54 | 30 | 10.0 | 17.0 | 0.04 | 1.45 | 1.43 | 95 | 1015.1 |
| 20260502004319 | 54 | 32 | 10.0 | 17.0 | 0.05 | 1.45 | 1.43 | 95 | 1015.2 |
| 20260502003831 | 54 | 25 | 9.0 | 17.0 | 0.04 | 1.44 | 1.42 | 95 | 1015.0 |
| 20260502003337 | 54 | 15 | 8.0 | 16.0 | 0.04 | 1.44 | 1.42 | 95 | 1014.7 |
| 20260502002900 | 54 | 28 | 7.0 | 16.0 | 0.05 | 1.44 | 1.42 | 95 | 1014.6 |
| 20260502002345 | 54 | 47 | 6.0 | 16.0 | 0.04 | 1.43 | 1.41 | 95 | 1014.5 |
| 20260502001835 | 54 | 46 | 8.0 | 14.0 | 0.04 | 1.43 | 1.41 | 95 | 1014.4 |
| 20260502001344 | 54 | 53 | 8.0 | 16.0 | 0.05 | 1.43 | 1.41 | 95 | 1014.7 |
| 20260502000826 | 54 | 17 | 10.0 | 16.0 | 0.04 | 1.42 | 1.40 | 95 | 1014.8 |
| 20260502000332 | 54 | 16 | 8.0 | 14.0 | 0.05 | 1.42 | 1.40 | 95 | 1015.1 |
| 20260501235833 | 54 | 17 | 5.0 | 11.0 | 0.05 | 1.42 | 1.40 | 95 | 1014.9 |
| 20260501235318 | 54 | 345 | 6.0 | 13.0 | 0.04 | 1.41 | 1.39 | 95 | 1014.8 |
| 20260501234850 | 54 | 14 | 8.0 | 14.0 | 0.05 | 1.41 | 1.39 | 95 | 1014.7 |
| 20260501234333 | 54 | 13 | 9.0 | 15.0 | 0.04 | 1.40 | 1.38 | 95 | 1014.7 |
| 20260501233839 | 54 | 39 | 9.0 | 14.0 | 0.05 | 1.40 | 1.38 | 95 | 1014.6 |
| 20260501233324 | 54 | 38 | 7.0 | 14.0 | 0.05 | 1.40 | 1.38 | 95 | 1014.7 |